Location: Devore Heights
(34.2372°N, 117.4156°W)
Time: 20:07:50
(UTC+00:00)

S-56A Canister/Altair - Pass Details

Date: 18 September 2024
Orbit: 636 x 2487 km, 38.9° (Epoch: 14 October)

Event Time Altitude Azimuth Distance (km) Brightness Sun altitude
Rises 08:19:51 0° 285° (WNW) 4,496 - -53.1°
Reaches altitude 10° 08:22:53 10° 275° (W) 3,767 - -53.0°
Maximum altitude 08:31:37 33° 217° (SW) 2,943 - -52.4°
Drops below altitude 10° 08:43:06 10° 160° (SSE) 4,954 - -51.5°
Sets 08:47:52 0° 152° (SSE) 6,088 - -51.1°
